TimeCST,TemperatureF,Dew PointF,Humidity,Sea Level PressureIn,VisibilityMPH,Wind Direction,Wind SpeedMPH,Gust SpeedMPH,PrecipitationIn,Events,Conditions,WindDirDegrees,DateUTC
12:33 AM,15.8,8.6,73,30.13,10.0,NE,8.1,-,N/A,,Overcast,40,2013-03-05 06:33:00
12:54 AM,15.8,8.6,73,30.13,10.0,NE,9.2,-,N/A,,Overcast,40,2013-03-05 06:54:00
1:13 AM,15.8,8.6,73,30.13,10.0,NE,9.2,-,N/A,,Overcast,40,2013-03-05 07:13:00
1:33 AM,15.8,8.6,73,30.13,10.0,NE,8.1,-,N/A,,Overcast,40,2013-03-05 07:33:00
1:53 AM,15.8,8.6,73,30.12,10.0,NNE,8.1,-,N/A,,Overcast,30,2013-03-05 07:53:00
2:14 AM,15.8,8.6,73,30.12,10.0,NE,10.4,-,N/A,,Overcast,40,2013-03-05 08:14:00
2:33 AM,15.8,8.6,73,30.12,10.0,NE,10.4,-,N/A,,Overcast,40,2013-03-05 08:33:00
2:53 AM,15.8,8.6,73,30.12,10.0,NE,9.2,-,N/A,,Overcast,40,2013-03-05 08:53:00
3:14 AM,15.8,8.6,73,30.12,10.0,NNE,9.2,-,N/A,,Overcast,30,2013-03-05 09:14:00
3:33 AM,15.8,8.6,73,30.11,10.0,NNE,10.4,-,N/A,,Overcast,30,2013-03-05 09:33:00
3:53 AM,15.8,8.6,73,30.11,10.0,NE,12.7,-,N/A,,Overcast,40,2013-03-05 09:53:00
4:14 AM,15.8,8.6,73,30.10,10.0,NE,13.8,21.9,N/A,,Overcast,40,2013-03-05 10:14:00
5:14 AM,15.8,8.6,73,30.10,10.0,NE,13.8,18.4,N/A,,Overcast,40,2013-03-05 11:14:00
5:33 AM,15.8,10.4,79,30.10,10.0,NNE,12.7,19.6,N/A,,Overcast,30,2013-03-05 11:33:00
6:14 AM,14.0,8.6,79,30.11,10.0,NNE,13.8,18.4,N/A,,Overcast,30,2013-03-05 12:14:00
6:34 AM,14.0,8.6,79,30.12,10.0,NNE,9.2,12.7,N/A,,Overcast,30,2013-03-05 12:34:00
6:53 AM,14.0,8.6,79,30.12,10.0,NNE,15.0,-,N/A,,Overcast,30,2013-03-05 12:53:00
7:14 AM,14.0,8.6,79,30.12,10.0,NNE,12.7,19.6,N/A,,Overcast,30,2013-03-05 13:14:00
7:33 AM,14.0,8.6,79,30.12,10.0,NNE,11.5,18.4,N/A,,Overcast,30,2013-03-05 13:33:00
7:53 AM,14.0,8.6,79,30.12,10.0,NNE,13.8,-,N/A,,Overcast,30,2013-03-05 13:53:00
8:14 AM,14.0,8.6,79,30.12,10.0,NNE,10.4,18.4,N/A,,Overcast,30,2013-03-05 14:14:00
8:33 AM,14.0,8.6,79,30.13,10.0,NNE,12.7,-,N/A,,Overcast,30,2013-03-05 14:33:00
8:53 AM,14.0,8.6,79,30.14,10.0,NNE,13.8,18.4,N/A,,Overcast,20,2013-03-05 14:53:00
9:14 AM,15.8,8.6,73,30.14,5.0,NNE,11.5,-,N/A,Snow,Light Snow,30,2013-03-05 15:14:00
9:34 AM,15.8,8.6,73,30.14,5.0,NNE,12.7,-,N/A,Snow,Light Snow,30,2013-03-05 15:34:00
9:53 AM,15.8,8.6,73,30.15,4.0,NNE,11.5,18.4,N/A,Snow,Light Snow,20,2013-03-05 15:53:00
10:14 AM,15.8,8.6,73,30.15,4.0,NNE,12.7,19.6,N/A,Snow,Light Snow,30,2013-03-05 16:14:00
10:33 AM,15.8,8.6,73,30.15,5.0,NNE,9.2,-,N/A,Snow,Light Snow,30,2013-03-05 16:33:00
10:53 AM,15.8,8.6,73,30.15,7.0,NNE,8.1,11.5,N/A,Snow,Light Snow,20,2013-03-05 16:53:00
11:14 AM,15.8,8.6,73,30.16,7.0,North,10.4,-,N/A,Snow,Light Snow,350,2013-03-05 17:14:00
11:33 AM,17.6,6.8,63,30.16,10.0,North,10.4,-,N/A,,Mostly Cloudy,10,2013-03-05 17:33:00
11:53 AM,17.6,6.8,63,30.16,10.0,NNW,11.5,16.1,N/A,,Scattered Clouds,340,2013-03-05 17:53:00
12:14 PM,17.6,6.8,63,30.15,10.0,North,11.5,16.1,N/A,,Scattered Clouds,10,2013-03-05 18:14:00
12:34 PM,19.4,6.8,58,30.15,10.0,North,10.4,-,N/A,,Clear,360,2013-03-05 18:34:00
12:53 PM,19.4,6.8,58,30.15,10.0,North,8.1,-,N/A,,Clear,10,2013-03-05 18:53:00
1:14 PM,19.4,6.8,58,30.14,10.0,NNW,10.4,-,N/A,,Clear,340,2013-03-05 19:14:00
1:33 PM,19.4,6.8,58,30.14,10.0,North,9.2,-,N/A,,Scattered Clouds,350,2013-03-05 19:33:00
1:53 PM,19.4,6.8,58,30.14,10.0,North,10.4,-,N/A,,Mostly Cloudy,360,2013-03-05 19:53:00
2:14 PM,19.4,6.8,58,30.14,10.0,North,11.5,16.1,N/A,,Mostly Cloudy,360,2013-03-05 20:14:00
2:34 PM,19.4,6.8,58,30.13,10.0,North,11.5,-,N/A,,Overcast,10,2013-03-05 20:34:00
2:53 PM,21.2,5.0,50,30.13,10.0,North,12.7,-,N/A,,Mostly Cloudy,360,2013-03-05 20:53:00
3:14 PM,21.2,5.0,50,30.13,10.0,NNE,12.7,18.4,N/A,,Mostly Cloudy,20,2013-03-05 21:14:00
3:34 PM,21.2,6.8,54,30.13,10.0,North,10.4,-,N/A,,Scattered Clouds,360,2013-03-05 21:34:00
3:53 PM,21.2,5.0,50,30.14,10.0,North,8.1,-,N/A,,Clear,350,2013-03-05 21:53:00
4:13 PM,21.2,5.0,50,30.14,10.0,North,11.5,-,N/A,,Clear,10,2013-03-05 22:13:00
4:34 PM,19.4,5.0,54,30.15,10.0,North,9.2,-,N/A,,Scattered Clouds,350,2013-03-05 22:34:00
4:53 PM,19.4,3.2,49,30.15,10.0,North,9.2,-,N/A,,Scattered Clouds,360,2013-03-05 22:53:00
5:13 PM,19.4,3.2,49,30.15,10.0,NNW,8.1,-,N/A,,Scattered Clouds,340,2013-03-05 23:13:00
5:34 PM,19.4,3.2,49,30.16,10.0,North,8.1,-,N/A,,Mostly Cloudy,350,2013-03-05 23:34:00
5:53 PM,19.4,3.2,49,30.16,10.0,North,8.1,-,N/A,,Overcast,360,2013-03-05 23:53:00
6:13 PM,17.6,3.2,53,30.17,10.0,North,9.2,-,N/A,,Overcast,360,2013-03-06 00:13:00
6:34 PM,17.6,3.2,53,30.17,10.0,NNE,8.1,-,N/A,,Overcast,20,2013-03-06 00:34:00
6:53 PM,17.6,3.2,53,30.18,10.0,North,10.4,-,N/A,,Overcast,360,2013-03-06 00:53:00
7:14 PM,15.8,3.2,58,30.18,10.0,North,12.7,-,N/A,,Overcast,360,2013-03-06 01:14:00
7:33 PM,15.8,3.2,58,30.18,10.0,North,12.7,17.3,N/A,,Overcast,360,2013-03-06 01:33:00
7:54 PM,15.8,1.4,53,30.18,10.0,North,9.2,-,N/A,,Overcast,360,2013-03-06 01:54:00
8:14 PM,15.8,1.4,53,30.18,10.0,North,8.1,-,N/A,,Overcast,360,2013-03-06 02:14:00
8:33 PM,15.8,1.4,53,30.18,10.0,North,9.2,-,N/A,,Overcast,360,2013-03-06 02:33:00
8:54 PM,14.0,1.4,57,30.18,10.0,NNW,5.8,-,N/A,,Overcast,340,2013-03-06 02:54:00
9:13 PM,14.0,1.4,57,30.19,10.0,NNW,8.1,-,N/A,,Overcast,340,2013-03-06 03:13:00
9:34 PM,14.0,1.4,57,30.19,10.0,North,10.4,-,N/A,,Overcast,350,2013-03-06 03:34:00
9:53 PM,14.0,1.4,57,30.19,10.0,North,8.1,-,N/A,,Overcast,350,2013-03-06 03:53:00
10:14 PM,14.0,1.4,57,30.20,10.0,NNW,9.2,-,N/A,,Overcast,340,2013-03-06 04:14:00
10:34 PM,12.2,1.4,62,30.20,10.0,NNW,8.1,-,N/A,,Overcast,340,2013-03-06 04:34:00
10:53 PM,12.2,1.4,62,30.21,10.0,NNW,10.4,-,N/A,,Overcast,340,2013-03-06 04:53:00
11:14 PM,12.2,1.4,62,30.21,10.0,NNW,10.4,-,N/A,,Overcast,340,2013-03-06 05:14:00
11:34 PM,12.2,3.2,67,30.21,10.0,NNW,9.2,-,N/A,,Overcast,340,2013-03-06 05:34:00
11:53 PM,12.2,3.2,67,30.20,10.0,NNW,11.5,-,N/A,,Overcast,340,2013-03-06 05:53:00